Back to catalog

NATO 2A

AliveMilitaryGEO
NORAD 4353·PAYLOAD· XX

Launched Mar 20, 1970 from Cape Canaveral Space Force Station

Loading…

TLE

FreshSource: Space-Track

Epoch: Sep 14, 2026, 13:19 UTC

1 04353U 70021A   26257.55495081 -.00000119  00000-0  00000-0 0  9996
2 04353   0.3208 338.6100 0003638 246.1473 226.8020  1.00278766126666

Track NATO 2A in real time with AllMySat

Download on the App Store